Wind_Speed
10 9 9 10 11 12 12 12 12 13 14 15 15 15 16 16 16 17 17 17 17 18 17 16 16 15 15 14 14 14 14 15 16 17 17 17 17 17 18 19 19 20
11 10 11 11 11 11 11 11 11 12 13 14 14 14 15 16 17 17 17 16 16 16 15 14 14 13 13 13 14 14 15 16 17 17 17 17 17 18 19 20 21 22
12 12 11 11 10 9 9 9 10 11 11 12 13 14 15 16 16 16 15 15 14 13 13 12 12 12 13 13 14 15 16 16 16 16 17 17 18 19 20 21 22 22
12 12 11 10 8 8 9 9 10 10 11 12 13 14 14 14 14 14 13 13 12 11 11 11 11 12 13 14 14 15 16 16 16 16 17 18 19 20 21 22 22 22
12 12 10 8 8 8 9 9 10 10 11 12 13 13 13 13 13 12 12 11 10 9 9 10 11 12 13 14 14 15 15 16 16 16 17 19 20 21 21 21 21 21
13 12 10 8 7 8 8 9 9 10 11 12 12 12 12 12 11 11 10 9 9 8 9 10 11 12 13 14 15 15 15 16 16 17 18 19 20 20 21 21 20 20
14 13 10 8 8 8 9 9 10 11 11 12 12 12 12 12 11 10 9 9 8 8 9 10 12 13 14 14 15 15 15 16 16 17 18 19 20 20 20 19 19 19
15 13 12 10 10 10 10 11 11 12 12 13 13 12 12 12 11 10 9 8 8 8 9 11 12 12 13 14 15 15 16 16 17 17 18 19 19 19 18 18 18 18
15 14 13 12 11 10 11 12 13 13 14 14 13 13 13 12 11 10 10 9 9 10 10 11 11 12 13 14 15 15 16 16 17 18 18 18 18 17 17 17 17 17
16 15 13 12 11 11 12 13 14 15 15 15 15 14 13 12 11 11 10 10 10 10 10 10 11 12 13 14 15 15 15 16 17 17 18 18 17 16 16 16 16 17
17 15 14 13 13 13 14 15 16 17 17 17 16 15 14 13 12 11 11 11 11 11 10 10 11 12 13 14 15 15 15 16 17 17 17 16 15 15 15 16 16 16
17 16 15 15 15 15 16 17 18 18 19 19 18 16 15 13 13 12 12 12 12 11 10 10 11 12 13 14 14 14 15 15 16 16 16 15 14 14 15 15 15 16
18 17 16 16 16 16 17 18 19 20 20 20 18 17 15 14 14 13 13 13 12 11 10 10 12 12 13 13 13 14 15 15 16 15 14 13 14 14 14 14 15 15
19 18 18 18 18 18 18 19 20 21 21 20 18 17 16 16 15 14 13 13 12 11 11 11 12 12 13 13 13 14 15 15 14 13 13 13 13 13 13 13 14 14
21 20 20 20 20 19 19 20 21 21 21 20 19 18 18 17 16 14 14 13 13 12 11 11 11 12 12 13 13 14 15 14 13 12 12 12 12 12 12 13 13 14
23 23 22 22 21 20 19 20 21 21 21 20 19 19 19 18 16 15 14 14 14 13 12 11 11 11 12 12 13 14 14 13 12 11 11 11 12 12 12 12 12 13
26 26 24 23 21 20 19 20 21 21 22 21 20 20 19 18 16 15 15 14 14 13 11 11 11 11 12 12 13 14 13 12 11 10 10 10 10 11 11 11 11 12
28 27 25 22 21 19 19 19 20 22 22 22 21 20 19 18 16 15 15 15 14 12 11 11 11 11 12 12 13 14 13 11 10 10 10 9 9 10 10 10 10 11
28 26 24 21 20 19 18 19 21 22 23 22 21 20 19 18 17 16 15 15 14 12 11 11 11 11 11 12 13 13 12 11 10 9 9 9 9 9 9 9 10 10
28 25 23 22 20 20 20 20 21 23 23 22 21 20 19 18 17 16 16 15 14 12 12 11 11 11 11 12 12 12 12 10 9 9 8 8 8 8 8 8 8 9
27 24 24 23 22 21 21 21 22 23 24 22 21 20 20 19 18 17 16 15 14 13 13 12 11 11 11 11 11 12 11 10 9 8 8 7 8 8 8 7 7 8
25 24 24 23 22 21 20 20 22 23 23 22 21 20 19 19 18 17 16 15 14 13 13 12 11 11 10 11 11 11 11 10 8 8 7 7 7 7 7 6 7 7
26 25 25 23 21 20 20 20 22 22 22 21 20 20 19 19 18 17 16 15 14 14 13 12 11 11 10 10 11 11 10 9 8 7 7 7 7 7 6 6 6 7
26 24 23 22 20 20 20 20 21 22 21 21 20 20 20 19 18 17 16 15 15 14 14 12 11 11 10 10 10 10 10 9 8 7 7 7 7 7 6 5 5 6
26 24 23 22 21 20 20 20 21 22 22 21 21 21 21 20 19 18 17 16 16 15 14 12 11 11 10 10 10 10 9 9 8 7 6 6 7 6 5 5 5 6
25 24 23 23 21 21 21 21 22 23 22 22 22 21 21 20 19 18 17 17 16 15 14 12 12 11 10 10 10 9 9 9 8 7 6 6 7 6 4 4 5 6
Wind_Direction
219 226 233 242 247 251 253 254 256 259 263 267 270 275 278 281 286 290 295 299 300 300 300 299 299 299 301 303 305 307 310 313 315 316 315 314 314 316 319 323 326 328
225 232 239 244 246 249 253 255 259 261 264 269 276 281 284 286 289 292 294 296 296 295 295 296 297 298 301 303 306 310 313 315 315 315 315 315 316 319 323 326 328 328
230 235 237 239 241 248 256 263 266 268 273 281 286 288 288 288 289 289 290 290 290 291 292 294 297 299 302 305 309 313 315 315 315 315 316 316 319 323 325 327 328 327
231 232 232 236 245 257 267 272 276 279 285 289 291 291 289 287 286 285 285 285 285 287 290 295 298 300 304 308 312 315 315 316 315 315 316 318 321 325 327 328 327 327
230 229 231 241 255 266 271 275 281 286 290 292 293 292 288 284 283 281 280 279 280 284 290 295 298 300 305 311 313 314 314 314 313 314 316 320 323 326 327 327 327 329
227 228 234 246 259 269 275 281 288 291 293 295 294 291 287 283 280 275 274 274 276 284 290 295 299 303 308 311 312 312 311 310 311 314 318 322 325 326 326 328 330 332
228 232 236 247 261 273 282 289 295 296 297 296 294 290 285 280 275 271 270 271 275 283 290 295 299 304 308 309 309 309 308 308 311 316 320 323 324 325 327 330 333 335
233 236 239 251 264 275 284 290 295 297 296 295 291 286 280 274 271 268 267 270 275 282 288 292 298 303 306 307 306 305 305 308 313 318 321 323 325 327 330 332 334 335
236 238 244 255 263 272 282 287 291 292 291 288 284 279 274 270 267 265 265 268 273 279 283 290 297 302 304 303 303 302 304 309 314 319 322 324 325 328 331 333 335 336
235 238 244 252 259 271 279 282 284 284 283 281 276 272 268 265 263 262 263 266 270 275 281 291 298 300 300 299 299 300 304 310 315 319 321 323 325 328 332 334 335 337
232 236 244 252 261 271 275 276 277 277 277 274 271 267 264 261 258 258 261 264 268 273 282 291 295 295 295 295 296 300 305 311 316 318 320 322 325 329 333 335 336 340
233 240 249 256 263 268 269 270 271 271 271 270 267 264 260 255 253 254 258 262 267 273 281 287 289 289 290 291 294 299 306 311 315 316 318 321 327 331 333 334 337 343
238 244 250 256 262 265 266 267 267 267 267 266 265 261 256 252 250 251 256 261 266 271 275 280 282 284 287 289 294 300 305 310 312 314 318 323 328 331 332 334 340 345
242 246 250 255 260 263 264 264 264 264 264 263 261 257 252 249 248 250 255 260 264 267 270 274 277 281 284 287 293 299 304 309 311 314 320 325 328 330 331 336 342 343
244 247 250 254 259 261 261 262 261 261 261 260 257 252 249 247 248 251 255 259 262 264 267 271 275 279 283 288 295 300 304 308 312 316 321 325 326 328 332 338 341 341
247 249 251 254 257 259 259 259 259 259 259 257 253 249 247 247 248 251 255 257 260 262 266 270 274 278 283 290 296 300 303 307 311 317 321 323 324 327 333 337 338 339
248 250 251 253 256 258 258 258 257 257 256 254 250 247 246 246 248 250 253 256 258 261 265 269 273 278 284 291 296 298 301 304 309 315 318 319 323 328 333 334 335 338
249 251 252 253 256 259 259 258 256 254 254 251 249 247 246 246 247 249 251 254 256 259 263 266 271 276 283 291 294 296 298 301 307 313 313 316 323 328 329 329 333 338
248 251 252 253 257 260 261 258 255 252 251 249 247 246 246 246 247 248 249 251 254 256 260 263 268 275 283 289 291 292 295 299 304 308 309 314 321 322 322 326 332 339
247 249 250 253 257 261 261 258 253 250 249 247 245 245 245 246 246 247 248 249 251 253 256 260 265 272 280 286 287 288 290 295 299 302 304 310 315 315 318 325 333 342
245 246 249 253 257 259 259 256 251 248 248 246 243 243 245 246 246 247 247 248 249 252 254 257 262 270 277 280 282 283 286 290 293 295 299 305 309 310 315 323 334 344
241 244 247 251 254 255 256 255 250 246 246 245 243 243 244 244 245 245 245 247 249 251 253 255 259 266 272 274 276 279 282 285 287 289 294 300 303 305 312 322 335 345
242 244 244 246 250 252 253 251 247 244 243 243 242 242 242 241 241 242 243 245 247 249 250 252 257 263 267 269 271 275 278 279 281 285 290 296 298 301 308 321 336 345
241 241 240 241 247 250 249 246 243 241 241 240 239 239 239 239 239 239 240 242 244 246 247 249 254 259 261 264 268 271 272 273 275 280 284 291 294 295 305 323 338 347
235 238 239 240 244 247 246 242 239 238 238 237 237 237 237 238 238 237 238 239 240 242 245 247 252 255 257 260 264 265 267 267 269 272 278 285 288 290 302 322 338 347
231 237 237 236 239 244 245 240 235 236 237 236 235 236 236 236 237 237 237 238 239 240 242 246 249 250 252 257 260 261 262 261 261 265 272 278 281 286 301 322 336 342
Height
3154 3155 3156 3156 3157 3157 3158 3158 3159 3160 3160 3160 3161 3161 3161 3161 3161 3161 3160 3160 3160 3159 3159 3158 3157 3157 3156 3156 3156 3155 3155 3154 3153 3153 3152 3151 3150 3149 3148 3146 3145 3144
3153 3154 3155 3155 3155 3156 3156 3157 3158 3158 3158 3158 3159 3159 3159 3158 3158 3158 3158 3158 3158 3157 3157 3156 3156 3155 3155 3155 3154 3154 3153 3153 3152 3151 3150 3149 3148 3147 3146 3144 3143 3142
3152 3153 3153 3154 3154 3154 3155 3155 3156 3156 3156 3157 3156 3156 3156 3156 3156 3156 3156 3156 3156 3156 3155 3155 3154 3154 3154 3153 3153 3153 3152 3151 3151 3150 3149 3148 3146 3145 3144 3143 3141 3140
3150 3151 3152 3153 3153 3153 3153 3154 3154 3154 3155 3154 3154 3154 3154 3154 3154 3154 3154 3154 3154 3154 3154 3153 3153 3153 3153 3152 3152 3151 3151 3150 3149 3148 3147 3146 3145 3143 3142 3141 3140 3139
3149 3150 3151 3151 3151 3151 3152 3152 3152 3152 3152 3152 3152 3152 3152 3152 3152 3152 3153 3153 3153 3152 3152 3152 3152 3152 3151 3151 3151 3150 3149 3149 3148 3147 3146 3145 3143 3142 3141 3140 3139 3138
3147 3148 3149 3149 3150 3150 3150 3150 3150 3150 3150 3150 3150 3150 3150 3150 3151 3151 3151 3151 3151 3151 3151 3151 3151 3150 3150 3150 3149 3149 3148 3147 3147 3146 3145 3143 3142 3141 3140 3139 3138 3136
3146 3147 3147 3148 3148 3148 3149 3148 3149 3149 3149 3149 3149 3149 3149 3149 3149 3149 3149 3149 3149 3149 3150 3150 3149 3149 3149 3148 3148 3147 3147 3146 3145 3144 3143 3142 3141 3140 3139 3138 3137 3135
3144 3145 3146 3146 3147 3147 3147 3147 3147 3147 3147 3147 3147 3147 3147 3148 3148 3148 3148 3148 3148 3148 3148 3148 3148 3148 3148 3147 3147 3146 3145 3145 3144 3143 3142 3141 3140 3139 3138 3137 3135 3134
3142 3143 3144 3145 3145 3145 3145 3145 3145 3145 3146 3146 3146 3146 3146 3146 3146 3146 3146 3147 3147 3147 3147 3147 3147 3147 3146 3146 3145 3145 3144 3143 3142 3142 3141 3140 3139 3138 3137 3136 3134 3133
3141 3142 3142 3143 3143 3144 3144 3144 3144 3144 3144 3144 3144 3144 3144 3145 3145 3145 3145 3145 3146 3146 3146 3146 3145 3145 3145 3144 3144 3143 3143 3142 3141 3140 3139 3138 3137 3136 3135 3134 3133 3132
3139 3140 3141 3141 3142 3142 3142 3142 3142 3142 3143 3142 3143 3143 3143 3143 3143 3144 3144 3144 3144 3144 3144 3144 3144 3144 3143 3143 3143 3142 3141 3140 3140 3139 3138 3137 3136 3135 3134 3133 3132 3131
3137 3138 3139 3139 3140 3140 3140 3141 3140 3141 3141 3141 3141 3141 3142 3142 3142 3142 3143 3143 3143 3143 3142 3142 3142 3142 3142 3141 3141 3140 3140 3139 3138 3138 3137 3136 3135 3134 3133 3132 3131 3130
3135 3137 3137 3138 3138 3138 3138 3138 3138 3139 3139 3139 3139 3140 3140 3140 3140 3141 3141 3141 3141 3141 3141 3141 3140 3140 3140 3140 3140 3139 3139 3138 3137 3136 3136 3135 3134 3133 3132 3132 3130 3129
3134 3135 3135 3136 3136 3136 3136 3136 3136 3137 3137 3137 3138 3138 3138 3138 3139 3139 3139 3139 3140 3139 3139 3139 3139 3139 3139 3138 3138 3138 3137 3137 3136 3135 3135 3134 3133 3132 3132 3131 3130 3128
3131 3132 3133 3134 3134 3134 3134 3134 3134 3134 3135 3135 3136 3136 3136 3137 3137 3137 3137 3138 3138 3138 3137 3137 3137 3137 3137 3137 3137 3137 3136 3136 3135 3134 3134 3133 3132 3132 3131 3130 3129 3128
3129 3130 3131 3131 3132 3132 3131 3131 3132 3132 3133 3133 3134 3134 3134 3135 3135 3135 3136 3136 3136 3136 3136 3136 3136 3136 3136 3136 3136 3136 3135 3135 3134 3133 3132 3132 3131 3130 3130 3129 3128 3127
3126 3127 3128 3129 3129 3129 3129 3129 3129 3130 3130 3131 3131 3132 3132 3133 3133 3133 3134 3134 3134 3134 3134 3134 3134 3134 3135 3135 3135 3134 3134 3133 3133 3132 3131 3131 3130 3129 3129 3128 3127 3126
3123 3124 3125 3126 3126 3126 3126 3127 3127 3127 3128 3128 3129 3130 3131 3131 3131 3132 3132 3132 3132 3132 3132 3132 3133 3133 3134 3134 3134 3133 3133 3132 3131 3131 3130 3130 3129 3129 3128 3127 3126 3125
3120 3121 3122 3123 3124 3124 3124 3124 3124 3125 3126 3126 3127 3128 3129 3129 3129 3130 3130 3130 3130 3130 3131 3131 3131 3132 3132 3133 3132 3132 3131 3131 3130 3130 3129 3129 3128 3128 3127 3127 3126 3124
3117 3119 3120 3121 3121 3122 3122 3122 3122 3123 3123 3124 3125 3126 3126 3127 3127 3128 3128 3128 3128 3129 3129 3129 3130 3130 3131 3131 3131 3130 3130 3129 3129 3129 3128 3128 3127 3127 3127 3126 3125 3124
3115 3116 3117 3118 3119 3119 3119 3120 3120 3120 3121 3122 3123 3124 3124 3125 3125 3125 3126 3126 3127 3127 3128 3128 3129 3129 3129 3129 3129 3129 3129 3128 3128 3127 3127 3127 3127 3126 3126 3125 3124 3123
3113 3114 3115 3115 3116 3117 3117 3117 3117 3118 3119 3119 3120 3121 3122 3122 3123 3123 3124 3124 3125 3125 3126 3127 3127 3127 3127 3128 3128 3127 3127 3127 3126 3126 3126 3126 3126 3125 3125 3124 3123 3122
3110 3111 3112 3112 3113 3114 3114 3114 3115 3115 3116 3117 3118 3119 3119 3120 3121 3121 3122 3122 3123 3124 3125 3125 3125 3126 3126 3126 3126 3126 3126 3125 3125 3125 3125 3125 3125 3124 3124 3123 3122 3121
3107 3108 3109 3109 3110 3111 3111 3111 3112 3112 3113 3114 3115 3116 3117 3118 3118 3119 3120 3120 3121 3122 3123 3123 3124 3124 3124 3125 3125 3125 3125 3124 3124 3124 3124 3124 3123 3123 3123 3122 3121 3120
3103 3105 3105 3106 3107 3108 3108 3108 3109 3110 3111 3112 3113 3114 3114 3115 3116 3117 3118 3119 3119 3120 3121 3121 3122 3122 3123 3123 3124 3124 3123 3123 3123 3123 3122 3122 3122 3122 3122 3121 3120 3119
3100 3102 3103 3103 3104 3105 3105 3105 3106 3107 3108 3110 3111 3111 3112 3113 3114 3115 3116 3117 3118 3118 3119 3120 3120 3121 3121 3122 3122 3122 3122 3122 3122 3121 3121 3121 3121 3121 3120 3120 3119 3118